Time,TemperatureF,DewpointF,PressureIn,WindDirection,WindDirectionDegrees,WindSpeedMPH,WindSpeedGustMPH,Humidity,HourlyPrecipIn,Conditions,Clouds,dailyrainin,SoftwareType,DateUTC
2013-03-09 00:00:00,32.0,11.5,29.26,SE,135,0.0,0.0,42,0.00,,---,0.00,VWS V13.01,2013-03-09 05:00:00,
2013-03-09 00:01:00,32.0,11.5,29.26,SE,135,0.0,0.0,42,0.00,,---,0.00,VWS V13.01,2013-03-09 05:01:00,
2013-03-09 00:12:00,32.0,12.1,29.26,SE,135,0.0,0.0,43,0.00,,---,0.00,VWS V13.01,2013-03-09 05:12:00,
2013-03-09 00:17:00,32.2,11.7,29.26,SE,135,0.0,0.0,42,0.00,,---,0.00,VWS V13.01,2013-03-09 05:17:00,
2013-03-09 00:22:00,32.0,11.5,29.26,SE,135,0.0,0.0,42,0.00,,---,0.00,VWS V13.01,2013-03-09 05:22:00,
2013-03-09 00:27:00,31.5,11.6,29.26,SE,135,0.0,0.0,43,0.00,,---,0.00,VWS V13.01,2013-03-09 05:27:00,
2013-03-09 00:32:00,31.1,11.2,29.26,SE,135,0.0,0.0,43,0.00,,---,0.00,VWS V13.01,2013-03-09 05:32:00,
2013-03-09 00:38:00,31.1,11.2,29.26,SE,135,0.0,0.0,43,0.00,,---,0.00,VWS V13.01,2013-03-09 05:38:00,
2013-03-09 00:43:00,30.9,11.6,29.26,SE,135,0.0,0.0,44,0.00,,---,0.00,VWS V13.01,2013-03-09 05:43:00,
2013-03-09 00:48:00,30.7,11.4,29.26,SE,135,0.0,0.0,44,0.00,,---,0.00,VWS V13.01,2013-03-09 05:48:00,
2013-03-09 00:53:00,30.7,11.4,29.26,SE,135,0.0,0.0,44,0.00,,---,0.00,VWS V13.01,2013-03-09 05:53:00,
2013-03-09 00:58:00,30.7,11.9,29.26,SE,135,0.0,0.0,45,0.00,,---,0.00,VWS V13.01,2013-03-09 05:58:00,
2013-03-09 01:03:00,30.9,12.1,29.26,SE,135,0.0,0.0,45,0.00,,---,0.00,VWS V13.01,2013-03-09 06:03:00,
2013-03-09 01:08:00,30.7,11.4,29.26,SE,135,0.0,0.0,44,0.00,,---,0.00,VWS V13.01,2013-03-09 06:08:00,
2013-03-09 01:13:00,31.1,12.2,29.26,WSW,248,0.0,0.0,45,0.00,,---,0.00,VWS V13.01,2013-03-09 06:13:00,
2013-03-09 01:18:00,31.1,12.2,29.26,WSW,248,0.0,0.0,45,0.00,,---,0.00,VWS V13.01,2013-03-09 06:18:00,
2013-03-09 01:23:00,31.1,11.8,29.26,ESE,112,0.0,0.0,44,0.00,,---,0.00,VWS V13.01,2013-03-09 06:23:00,
2013-03-09 01:28:00,31.8,12.4,29.26,SE,135,0.0,0.0,44,0.00,,---,0.00,VWS V13.01,2013-03-09 06:28:00,
2013-03-09 01:33:00,31.6,12.2,29.26,SE,135,0.0,0.0,44,0.00,,---,0.00,VWS V13.01,2013-03-09 06:33:00,
2013-03-09 01:38:00,31.3,11.9,29.26,SE,135,0.0,0.0,44,0.00,,---,0.00,VWS V13.01,2013-03-09 06:38:00,
2013-03-09 01:43:00,31.6,12.2,29.26,NW,315,0.0,0.0,44,0.00,,---,0.00,VWS V13.01,2013-03-09 06:43:00,
2013-03-09 01:48:00,32.0,12.6,29.26,NW,315,0.0,0.0,44,0.00,,---,0.00,VWS V13.01,2013-03-09 06:48:00,
2013-03-09 01:54:00,31.8,11.9,29.26,East,90,0.0,0.0,43,0.00,,---,0.00,VWS V13.01,2013-03-09 06:54:00,
2013-03-09 01:59:00,31.5,11.6,29.26,East,90,0.0,0.0,43,0.00,,---,0.00,VWS V13.01,2013-03-09 06:59:00,
2013-03-09 02:04:00,31.3,11.4,29.26,East,90,0.0,0.0,43,0.00,,---,0.00,VWS V13.01,2013-03-09 07:04:00,
2013-03-09 02:09:00,31.1,11.2,29.26,East,90,0.0,0.0,43,0.00,,---,0.00,VWS V13.01,2013-03-09 07:09:00,
2013-03-09 02:14:00,30.7,11.4,29.26,East,90,0.0,0.0,44,0.00,,---,0.00,VWS V13.01,2013-03-09 07:14:00,
2013-03-09 02:19:00,30.9,11.6,29.26,East,90,0.0,0.0,44,0.00,,---,0.00,VWS V13.01,2013-03-09 07:19:00,
2013-03-09 02:24:00,30.9,11.6,29.26,East,90,0.0,0.0,44,0.00,,---,0.00,VWS V13.01,2013-03-09 07:24:00,
2013-03-09 02:29:00,30.7,11.9,29.26,East,90,0.0,0.0,45,0.00,,---,0.00,VWS V13.01,2013-03-09 07:29:00,
2013-03-09 02:34:00,30.4,11.6,29.26,SE,135,0.0,0.0,45,0.00,,---,0.00,VWS V13.01,2013-03-09 07:34:00,
2013-03-09 02:39:00,30.4,11.6,29.26,SE,135,0.0,0.0,45,0.00,,---,0.00,VWS V13.01,2013-03-09 07:39:00,
2013-03-09 02:44:00,30.2,11.9,29.26,SE,135,0.0,0.0,46,0.00,,---,0.00,VWS V13.01,2013-03-09 07:44:00,
2013-03-09 02:49:00,30.0,12.2,29.26,SE,135,0.0,0.0,47,0.00,,---,0.00,VWS V13.01,2013-03-09 07:49:00,
2013-03-09 02:54:00,30.0,12.2,29.23,SE,135,0.0,0.0,47,0.00,,---,0.00,VWS V13.01,2013-03-09 07:54:00,
2013-03-09 03:00:00,29.7,12.4,29.23,SE,135,0.0,0.0,48,0.00,,---,0.00,VWS V13.01,2013-03-09 08:00:00,
2013-03-09 03:05:00,29.5,12.2,29.23,SE,135,0.0,0.0,48,0.00,,---,0.00,VWS V13.01,2013-03-09 08:05:00,
2013-03-09 03:10:00,29.5,12.2,29.23,SE,135,0.0,0.0,48,0.00,,---,0.00,VWS V13.01,2013-03-09 08:10:00,
2013-03-09 03:15:00,29.5,12.2,29.23,SE,135,0.0,0.0,48,0.00,,---,0.00,VWS V13.01,2013-03-09 08:15:00,
2013-03-09 03:20:00,29.5,12.7,29.23,SE,135,0.0,0.0,49,0.00,,---,0.00,VWS V13.01,2013-03-09 08:20:00,
2013-03-09 03:25:00,29.5,12.7,29.23,SE,135,0.0,0.0,49,0.00,,---,0.00,VWS V13.01,2013-03-09 08:25:00,
2013-03-09 03:30:00,29.1,12.4,29.23,SE,135,0.0,0.0,49,0.00,,---,0.00,VWS V13.01,2013-03-09 08:30:00,
2013-03-09 03:35:00,29.1,12.4,29.23,SE,135,0.0,0.0,49,0.00,,---,0.00,VWS V13.01,2013-03-09 08:35:00,
2013-03-09 03:40:00,28.9,13.1,29.26,SE,135,0.0,0.0,51,0.00,,---,0.00,VWS V13.01,2013-03-09 08:40:00,
2013-03-09 03:45:00,28.8,12.9,29.26,SE,135,0.0,0.0,51,0.00,,---,0.00,VWS V13.01,2013-03-09 08:45:00,
2013-03-09 03:50:00,28.9,13.1,29.26,SE,135,0.0,0.0,51,0.00,,---,0.00,VWS V13.01,2013-03-09 08:50:00,
2013-03-09 03:55:00,28.8,12.9,29.23,SE,135,0.0,0.0,51,0.00,,---,0.00,VWS V13.01,2013-03-09 08:55:00,
2013-03-09 04:00:00,28.6,12.8,29.23,SE,135,0.0,0.0,51,0.00,,---,0.00,VWS V13.01,2013-03-09 09:00:00,
2013-03-09 04:05:00,28.8,12.9,29.26,SE,135,0.0,0.0,51,0.00,,---,0.00,VWS V13.01,2013-03-09 09:05:00,
2013-03-09 04:11:00,28.9,13.1,29.26,SE,135,0.0,0.0,51,0.00,,---,0.00,VWS V13.01,2013-03-09 09:11:00,
2013-03-09 04:16:00,28.9,13.1,29.26,SE,135,0.0,0.0,51,0.00,,---,0.00,VWS V13.01,2013-03-09 09:16:00,
2013-03-09 04:21:00,28.6,12.8,29.26,SE,135,0.0,0.0,51,0.00,,---,0.00,VWS V13.01,2013-03-09 09:21:00,
2013-03-09 04:26:00,28.6,13.2,29.23,SE,135,0.0,0.0,52,0.00,,---,0.00,VWS V13.01,2013-03-09 09:26:00,
2013-03-09 04:31:00,28.4,13.0,29.23,SE,135,0.0,0.0,52,0.00,,---,0.00,VWS V13.01,2013-03-09 09:31:00,
2013-03-09 04:36:00,28.4,13.0,29.23,SE,135,0.0,0.0,52,0.00,,---,0.00,VWS V13.01,2013-03-09 09:36:00,
2013-03-09 04:41:00,28.6,13.2,29.23,SE,135,0.0,0.0,52,0.00,,---,0.00,VWS V13.01,2013-03-09 09:41:00,
2013-03-09 04:46:00,28.4,13.0,29.23,SE,135,0.0,0.0,52,0.00,,---,0.00,VWS V13.01,2013-03-09 09:46:00,
2013-03-09 04:51:00,28.2,12.9,29.26,SE,135,0.0,0.0,52,0.00,,---,0.00,VWS V13.01,2013-03-09 09:51:00,
2013-03-09 04:56:00,28.2,12.9,29.26,SE,135,0.0,0.0,52,0.00,,---,0.00,VWS V13.01,2013-03-09 09:56:00,
2013-03-09 05:01:00,28.4,13.0,29.26,SE,135,0.0,0.0,52,0.00,,---,0.00,VWS V13.01,2013-03-09 10:01:00,
2013-03-09 05:06:00,28.4,13.0,29.26,SE,135,0.0,0.0,52,0.00,,---,0.00,VWS V13.01,2013-03-09 10:06:00,
2013-03-09 05:11:00,28.0,12.7,29.23,SE,135,0.0,0.0,52,0.00,,---,0.00,VWS V13.01,2013-03-09 10:11:00,
2013-03-09 05:16:00,27.9,13.0,29.23,SE,135,0.0,0.0,53,0.00,,---,0.00,VWS V13.01,2013-03-09 10:16:00,
2013-03-09 05:22:00,27.9,13.0,29.23,SE,135,0.0,0.0,53,0.00,,---,0.00,VWS V13.01,2013-03-09 10:22:00,
2013-03-09 05:27:00,27.9,13.0,29.23,SE,135,0.0,0.0,53,0.00,,---,0.00,VWS V13.01,2013-03-09 10:27:00,
2013-03-09 05:32:00,27.9,13.4,29.23,SE,135,0.0,0.0,54,0.00,,---,0.00,VWS V13.01,2013-03-09 10:32:00,
2013-03-09 05:37:00,27.9,13.0,29.23,SE,135,0.0,0.0,53,0.00,,---,0.00,VWS V13.01,2013-03-09 10:37:00,
2013-03-09 05:42:00,27.7,13.2,29.23,SE,135,0.0,0.0,54,0.00,,---,0.00,VWS V13.01,2013-03-09 10:42:00,
2013-03-09 05:47:00,27.7,13.2,29.23,SE,135,0.0,0.0,54,0.00,,---,0.00,VWS V13.01,2013-03-09 10:47:00,
2013-03-09 05:52:00,27.5,13.1,29.23,SE,135,0.0,3.1,54,0.00,,---,0.00,VWS V13.01,2013-03-09 10:52:00,
2013-03-09 05:57:00,27.7,13.2,29.23,SE,135,0.0,3.1,54,0.00,,---,0.00,VWS V13.01,2013-03-09 10:57:00,
2013-03-09 06:02:00,27.7,13.2,29.23,SE,135,0.0,0.0,54,0.00,,---,0.00,VWS V13.01,2013-03-09 11:02:00,
2013-03-09 06:07:00,27.9,13.4,29.23,SE,135,0.0,0.0,54,0.00,,---,0.00,VWS V13.01,2013-03-09 11:07:00,
2013-03-09 06:12:00,27.7,13.2,29.23,SE,135,0.0,0.0,54,0.00,,---,0.00,VWS V13.01,2013-03-09 11:12:00,
2013-03-09 06:18:00,27.9,13.4,29.23,SE,135,0.0,0.0,54,0.00,,---,0.00,VWS V13.01,2013-03-09 11:18:00,
2013-03-09 06:23:00,27.9,13.4,29.26,SE,135,0.0,0.0,54,0.00,,---,0.00,VWS V13.01,2013-03-09 11:23:00,
2013-03-09 06:28:00,27.9,13.4,29.26,SE,135,0.0,0.0,54,0.00,,---,0.00,VWS V13.01,2013-03-09 11:28:00,
2013-03-09 06:33:00,27.5,13.1,29.26,SE,135,0.0,0.0,54,0.00,,---,0.00,VWS V13.01,2013-03-09 11:33:00,
2013-03-09 06:38:00,27.5,13.1,29.26,SE,135,0.0,0.0,54,0.00,,---,0.00,VWS V13.01,2013-03-09 11:38:00,
2013-03-09 06:43:00,27.5,13.1,29.26,SE,135,0.0,0.0,54,0.00,,---,0.00,VWS V13.01,2013-03-09 11:43:00,
2013-03-09 06:48:00,27.1,12.7,29.26,SE,135,0.0,0.0,54,0.00,,---,0.00,VWS V13.01,2013-03-09 11:48:00,
2013-03-09 06:53:00,27.0,13.0,29.23,SE,135,0.0,0.0,55,0.00,,---,0.00,VWS V13.01,2013-03-09 11:53:00,
2013-03-09 06:58:00,27.0,13.0,29.23,SE,135,0.0,0.0,55,0.00,,---,0.00,VWS V13.01,2013-03-09 11:58:00,
2013-03-09 07:03:00,26.8,12.8,29.23,SE,135,0.0,0.0,55,0.00,,---,0.00,VWS V13.01,2013-03-09 12:03:00,
2013-03-09 07:08:00,26.8,13.2,29.23,SE,135,0.0,0.0,56,0.00,,---,0.00,VWS V13.01,2013-03-09 12:08:00,
2013-03-09 07:13:00,26.8,13.6,29.23,SE,135,0.0,0.0,57,0.00,,---,0.00,VWS V13.01,2013-03-09 12:13:00,
2013-03-09 07:19:00,27.3,14.1,29.23,SE,135,0.0,0.0,57,0.00,,---,0.00,VWS V13.01,2013-03-09 12:19:00,
2013-03-09 07:24:00,27.5,14.3,29.23,SE,135,0.0,0.0,57,0.00,,---,0.00,VWS V13.01,2013-03-09 12:24:00,
2013-03-09 07:29:00,27.5,14.3,29.23,SE,135,0.0,0.0,57,0.00,,---,0.00,VWS V13.01,2013-03-09 12:29:00,
2013-03-09 07:34:00,28.2,15.0,29.23,SE,135,0.0,0.0,57,0.00,,---,0.00,VWS V13.01,2013-03-09 12:34:00,
2013-03-09 07:39:00,28.6,14.9,29.23,SE,135,0.0,0.0,56,0.00,,---,0.00,VWS V13.01,2013-03-09 12:39:00,
2013-03-09 07:44:00,29.7,15.5,29.26,SE,135,0.0,0.0,55,0.00,,---,0.00,VWS V13.01,2013-03-09 12:44:00,
2013-03-09 07:49:00,30.0,15.4,29.26,SE,135,0.0,0.0,54,0.00,,---,0.00,VWS V13.01,2013-03-09 12:49:00,
2013-03-09 07:54:00,30.2,15.1,29.26,SE,135,0.0,0.0,53,0.00,,---,0.00,VWS V13.01,2013-03-09 12:54:00,
2013-03-09 07:59:00,30.6,15.0,29.26,SE,135,0.0,0.0,52,0.00,,---,0.00,VWS V13.01,2013-03-09 12:59:00,
2013-03-09 08:04:00,31.1,15.1,29.26,SE,135,0.0,0.0,51,0.00,,---,0.00,VWS V13.01,2013-03-09 13:04:00,
2013-03-09 08:09:00,32.2,15.6,29.26,SE,135,0.0,0.0,50,0.00,,---,0.00,VWS V13.01,2013-03-09 13:09:00,
2013-03-09 08:14:00,32.2,15.6,29.26,South,180,3.6,3.6,50,0.00,,---,0.00,VWS V13.01,2013-03-09 13:14:00,
2013-03-09 08:19:00,33.3,13.2,29.26,South,180,0.0,3.6,43,0.00,,---,0.00,VWS V13.01,2013-03-09 13:19:00,
2013-03-09 08:24:00,33.4,12.8,29.26,South,180,4.0,4.0,42,0.00,,---,0.00,VWS V13.01,2013-03-09 13:24:00,
2013-03-09 08:29:00,33.6,13.0,29.26,South,180,2.7,4.0,42,0.00,,---,0.00,VWS V13.01,2013-03-09 13:29:00,
2013-03-09 08:35:00,34.0,12.8,29.26,South,180,2.7,4.0,41,0.00,,---,0.00,VWS V13.01,2013-03-09 13:35:00,
2013-03-09 08:40:00,34.5,13.3,29.29,South,180,0.0,4.0,41,0.00,,---,0.00,VWS V13.01,2013-03-09 13:40:00,
2013-03-09 08:45:00,35.1,13.8,29.29,South,180,0.0,0.0,41,0.00,,---,0.00,VWS V13.01,2013-03-09 13:45:00,
2013-03-09 08:50:00,35.2,13.4,29.29,South,180,0.0,3.1,40,0.00,,---,0.00,VWS V13.01,2013-03-09 13:50:00,
2013-03-09 08:55:00,35.6,13.7,29.29,SW,225,0.0,3.1,40,0.00,,---,0.00,VWS V13.01,2013-03-09 13:55:00,
2013-03-09 09:00:00,35.8,11.4,29.29,South,180,0.0,3.1,36,0.00,,---,0.00,VWS V13.01,2013-03-09 14:00:00,
2013-03-09 09:05:00,35.8,11.4,29.29,South,180,0.0,0.0,36,0.00,,---,0.00,VWS V13.01,2013-03-09 14:05:00,
2013-03-09 09:10:00,36.5,9.5,29.29,South,180,0.0,0.0,32,0.00,,---,0.00,VWS V13.01,2013-03-09 14:10:00,
2013-03-09 09:15:00,36.9,9.8,29.29,South,180,0.0,0.0,32,0.00,,---,0.00,VWS V13.01,2013-03-09 14:15:00,
2013-03-09 09:20:00,37.0,9.9,29.29,South,180,0.0,0.0,32,0.00,,---,0.00,VWS V13.01,2013-03-09 14:20:00,
2013-03-09 09:25:00,37.4,9.5,29.29,NE,45,0.0,0.0,31,0.00,,---,0.00,VWS V13.01,2013-03-09 14:25:00,
2013-03-09 09:30:00,37.4,8.8,29.29,NE,45,0.0,0.0,30,0.00,,---,0.00,VWS V13.01,2013-03-09 14:30:00,
2013-03-09 09:36:00,37.4,8.8,29.29,SE,135,0.0,0.0,30,0.00,,---,0.00,VWS V13.01,2013-03-09 14:36:00,
2013-03-09 09:41:00,37.4,8.8,29.29,SE,135,0.0,0.0,30,0.00,,---,0.00,VWS V13.01,2013-03-09 14:41:00,
2013-03-09 09:46:00,37.9,10.0,29.29,NE,45,0.0,0.0,31,0.00,,---,0.00,VWS V13.01,2013-03-09 14:46:00,
2013-03-09 09:51:00,38.3,9.6,29.29,NNE,22,0.0,0.0,30,0.00,,---,0.00,VWS V13.01,2013-03-09 14:51:00,
2013-03-09 09:56:00,39.2,9.6,29.29,NNE,22,3.6,3.6,29,0.00,,---,0.00,VWS V13.01,2013-03-09 14:56:00,
2013-03-09 10:01:00,39.2,9.6,29.29,ENE,68,4.0,4.0,29,0.00,,---,0.00,VWS V13.01,2013-03-09 15:01:00,
2013-03-09 10:06:00,39.4,9.0,29.29,ENE,68,0.0,3.1,28,0.00,,---,0.00,VWS V13.01,2013-03-09 15:06:00,
2013-03-09 10:11:00,39.4,9.0,29.29,ENE,68,3.6,3.6,28,0.00,,---,0.00,VWS V13.01,2013-03-09 15:11:00,
2013-03-09 10:16:00,40.6,10.1,29.29,ENE,68,0.0,3.6,28,0.00,,---,0.00,VWS V13.01,2013-03-09 15:16:00,
2013-03-09 10:21:00,40.6,10.1,29.29,ENE,68,2.2,4.0,28,0.00,,---,0.00,VWS V13.01,2013-03-09 15:21:00,
2013-03-09 10:26:00,40.6,10.1,29.29,ENE,68,2.7,4.0,28,0.00,,---,0.00,VWS V13.01,2013-03-09 15:26:00,
2013-03-09 10:31:00,41.0,10.4,29.29,NE,45,3.6,4.0,28,0.00,,---,0.00,VWS V13.01,2013-03-09 15:31:00,
2013-03-09 10:36:00,41.2,10.6,29.29,NE,45,0.0,4.0,28,0.00,,---,0.00,VWS V13.01,2013-03-09 15:36:00,
2013-03-09 10:42:00,41.2,10.6,29.29,East,90,0.0,4.0,28,0.00,,---,0.00,VWS V13.01,2013-03-09 15:42:00,
2013-03-09 10:47:00,42.6,11.8,29.29,East,90,3.1,3.6,28,0.00,,---,0.00,VWS V13.01,2013-03-09 15:47:00,
2013-03-09 10:52:00,42.6,11.8,29.29,ENE,68,2.7,4.0,28,0.00,,---,0.00,VWS V13.01,2013-03-09 15:52:00,
2013-03-09 10:57:00,43.0,9.6,29.29,NE,45,2.7,4.0,25,0.00,,---,0.00,VWS V13.01,2013-03-09 15:57:00,
2013-03-09 11:02:00,43.5,10.0,29.29,NE,45,0.0,4.0,25,0.00,,---,0.00,VWS V13.01,2013-03-09 16:02:00,
2013-03-09 11:07:00,43.5,10.0,29.29,NE,45,0.0,0.0,25,0.00,,---,0.00,VWS V13.01,2013-03-09 16:07:00,
2013-03-09 11:12:00,44.6,11.0,29.29,West,270,3.1,3.6,25,0.00,,---,0.00,VWS V13.01,2013-03-09 16:12:00,
2013-03-09 11:17:00,45.5,11.7,29.29,West,270,0.0,3.6,25,0.00,,---,0.00,VWS V13.01,2013-03-09 16:17:00,
2013-03-09 11:22:00,45.3,11.6,29.29,West,270,0.0,0.0,25,0.00,,---,0.00,VWS V13.01,2013-03-09 16:22:00,
2013-03-09 11:27:00,45.9,9.2,29.29,West,270,2.2,2.2,22,0.00,,---,0.00,VWS V13.01,2013-03-09 16:27:00,
2013-03-09 11:32:00,46.4,9.6,29.29,West,270,0.0,2.2,22,0.00,,---,0.00,VWS V13.01,2013-03-09 16:32:00,
2013-03-09 11:37:00,46.8,9.9,29.29,West,270,0.0,2.7,22,0.00,,---,0.00,VWS V13.01,2013-03-09 16:37:00,
2013-03-09 11:43:00,48.6,10.4,29.29,West,270,0.0,0.0,21,0.00,,---,0.00,VWS V13.01,2013-03-09 16:43:00,
2013-03-09 11:48:00,48.7,10.6,29.29,West,270,0.0,0.0,21,0.00,,---,0.00,VWS V13.01,2013-03-09 16:48:00,
2013-03-09 11:53:00,48.7,10.6,29.29,South,180,3.1,5.4,21,0.00,,---,0.00,VWS V13.01,2013-03-09 16:53:00,
2013-03-09 11:58:00,48.9,10.7,29.29,SE,135,3.6,5.4,21,0.00,,---,0.00,VWS V13.01,2013-03-09 16:58:00,
2013-03-09 12:03:00,49.6,11.3,29.29,SE,135,0.0,0.0,21,0.00,,---,0.00,VWS V13.01,2013-03-09 17:03:00,
2013-03-09 12:08:00,49.6,11.3,29.26,West,270,0.0,6.3,21,0.00,,---,0.00,VWS V13.01,2013-03-09 17:08:00,
2013-03-09 12:13:00,49.6,11.3,29.26,South,180,3.1,6.3,21,0.00,,---,0.00,VWS V13.01,2013-03-09 17:13:00,
2013-03-09 12:18:00,50.5,12.1,29.26,South,180,3.1,6.3,21,0.00,,---,0.00,VWS V13.01,2013-03-09 17:18:00,
2013-03-09 12:23:00,50.4,11.9,29.26,South,180,2.2,2.7,21,0.00,,---,0.00,VWS V13.01,2013-03-09 17:23:00,
2013-03-09 12:28:00,51.1,12.5,29.26,South,180,0.0,4.9,21,0.00,,---,0.00,VWS V13.01,2013-03-09 17:28:00,
2013-03-09 12:34:00,51.4,12.8,29.26,South,180,3.6,5.8,21,0.00,,---,0.00,VWS V13.01,2013-03-09 17:34:00,
2013-03-09 12:39:00,51.4,12.8,29.26,South,180,0.0,5.8,21,0.00,,---,0.00,VWS V13.01,2013-03-09 17:39:00,
2013-03-09 12:44:00,51.3,12.7,29.26,South,180,3.6,5.4,21,0.00,,---,0.00,VWS V13.01,2013-03-09 17:44:00,
2013-03-09 12:49:00,52.3,13.6,29.26,South,180,0.0,5.4,21,0.00,,---,0.00,VWS V13.01,2013-03-09 17:49:00,
2013-03-09 12:54:00,52.3,13.6,29.26,East,90,3.1,5.8,21,0.00,,---,0.00,VWS V13.01,2013-03-09 17:54:00,
2013-03-09 12:59:00,52.2,13.4,29.26,ESE,112,3.1,5.8,21,0.00,,---,0.00,VWS V13.01,2013-03-09 17:59:00,
2013-03-09 13:04:00,52.5,13.7,29.26,South,180,2.7,3.6,21,0.00,,---,0.00,VWS V13.01,2013-03-09 18:04:00,
2013-03-09 13:09:00,52.5,13.7,29.23,WNW,292,0.0,4.9,21,0.00,,---,0.00,VWS V13.01,2013-03-09 18:09:00,
2013-03-09 13:14:00,54.3,14.1,29.23,WNW,292,0.0,4.9,20,0.00,,---,0.00,VWS V13.01,2013-03-09 18:14:00,
2013-03-09 13:19:00,55.8,15.3,29.23,South,180,0.0,6.3,20,0.00,,---,0.00,VWS V13.01,2013-03-09 18:19:00,
2013-03-09 13:24:00,55.8,15.3,29.23,South,180,3.1,3.1,20,0.00,,---,0.00,VWS V13.01,2013-03-09 18:24:00,
2013-03-09 13:29:00,57.0,16.4,29.23,South,180,3.6,4.9,20,0.00,,---,0.00,VWS V13.01,2013-03-09 18:29:00,
2013-03-09 13:35:00,57.6,15.6,29.23,South,180,3.6,4.9,19,0.00,,---,0.00,VWS V13.01,2013-03-09 18:35:00,
2013-03-09 13:40:00,55.2,14.9,29.23,South,180,0.0,4.9,20,0.00,,---,0.00,VWS V13.01,2013-03-09 18:40:00,
2013-03-09 13:45:00,57.9,15.9,29.23,South,180,0.0,6.3,19,0.00,,---,0.00,VWS V13.01,2013-03-09 18:45:00,
2013-03-09 13:50:00,57.2,15.3,29.23,SSW,202,0.0,6.3,19,0.00,,---,0.00,VWS V13.01,2013-03-09 18:50:00,
2013-03-09 13:55:00,57.0,16.4,29.23,ENE,68,0.0,6.3,20,0.00,,---,0.00,VWS V13.01,2013-03-09 18:55:00,
2013-03-09 14:00:00,57.7,15.8,29.23,South,180,4.9,6.3,19,0.00,,---,0.00,VWS V13.01,2013-03-09 19:00:00,
2013-03-09 14:05:00,58.1,16.1,29.23,South,180,2.7,3.6,19,0.00,,---,0.00,VWS V13.01,2013-03-09 19:05:00,
2013-03-09 14:10:00,58.1,16.1,29.23,South,180,2.7,3.6,19,0.00,,---,0.00,VWS V13.01,2013-03-09 19:10:00,
2013-03-09 14:16:00,58.1,16.1,29.23,NE,45,3.1,5.8,19,0.00,,---,0.00,VWS V13.01,2013-03-09 19:16:00,
2013-03-09 14:21:00,57.6,15.6,29.23,North,0,2.2,5.8,19,0.00,,---,0.00,VWS V13.01,2013-03-09 19:21:00,
2013-03-09 14:26:00,57.4,15.5,29.23,North,0,2.2,4.9,19,0.00,,---,0.00,VWS V13.01,2013-03-09 19:26:00,
2013-03-09 14:31:00,57.6,15.6,29.23,North,0,0.0,4.9,19,0.00,,---,0.00,VWS V13.01,2013-03-09 19:31:00,
2013-03-09 14:37:00,57.7,15.8,29.23,North,0,0.0,4.9,19,0.00,,---,0.00,VWS V13.01,2013-03-09 19:37:00,
2013-03-09 14:42:00,58.1,16.1,29.23,North,0,0.0,4.9,19,0.00,,---,0.00,VWS V13.01,2013-03-09 19:42:00,
2013-03-09 14:47:00,59.7,17.4,29.23,North,0,0.0,3.1,19,0.00,,---,0.00,VWS V13.01,2013-03-09 19:47:00,
2013-03-09 14:52:00,59.2,17.0,29.20,North,0,0.0,3.1,19,0.00,,---,0.00,VWS V13.01,2013-03-09 19:52:00,
2013-03-09 14:57:00,59.2,17.0,29.20,North,0,4.0,4.0,19,0.00,,---,0.00,VWS V13.01,2013-03-09 19:57:00,
2013-03-09 15:02:00,59.2,17.0,29.20,North,0,0.0,4.0,19,0.00,,---,0.00,VWS V13.01,2013-03-09 20:02:00,
2013-03-09 15:07:00,59.2,17.0,29.20,North,0,2.7,2.7,19,0.00,,---,0.00,VWS V13.01,2013-03-09 20:07:00,
2013-03-09 15:12:00,59.2,17.0,29.20,West,270,0.0,4.0,19,0.00,,---,0.00,VWS V13.01,2013-03-09 20:12:00,
2013-03-09 15:17:00,58.6,16.5,29.20,SSW,202,0.0,4.0,19,0.00,,---,0.00,VWS V13.01,2013-03-09 20:17:00,
2013-03-09 15:23:00,58.1,16.1,29.20,SSW,202,0.0,0.0,19,0.00,,---,0.00,VWS V13.01,2013-03-09 20:23:00,
2013-03-09 15:28:00,57.9,15.9,29.20,SSW,202,3.1,3.6,19,0.00,,---,0.00,VWS V13.01,2013-03-09 20:28:00,
2013-03-09 15:33:00,57.6,15.6,29.20,SSW,202,0.0,4.0,19,0.00,,---,0.00,VWS V13.01,2013-03-09 20:33:00,
2013-03-09 15:38:00,58.6,16.5,29.20,SSW,202,0.0,4.0,19,0.00,,---,0.00,VWS V13.01,2013-03-09 20:38:00,
2013-03-09 15:43:00,59.2,17.0,29.20,SE,135,2.7,3.1,19,0.00,,---,0.00,VWS V13.01,2013-03-09 20:43:00,
2013-03-09 15:48:00,59.2,17.0,29.20,SE,135,3.6,3.6,19,0.00,,---,0.00,VWS V13.01,2013-03-09 20:48:00,
2013-03-09 15:53:00,58.5,16.4,29.20,SE,135,2.7,3.6,19,0.00,,---,0.00,VWS V13.01,2013-03-09 20:53:00,
2013-03-09 15:58:00,59.4,14.6,29.20,SE,135,0.0,3.6,17,0.00,,---,0.00,VWS V13.01,2013-03-09 20:58:00,
2013-03-09 16:03:00,59.4,17.1,29.20,SE,135,2.7,3.1,19,0.00,,---,0.00,VWS V13.01,2013-03-09 21:03:00,
2013-03-09 16:08:00,59.0,16.8,29.20,SE,135,0.0,3.1,19,0.00,,---,0.00,VWS V13.01,2013-03-09 21:08:00,
2013-03-09 16:14:00,59.0,14.3,29.20,SE,135,2.2,3.1,17,0.00,,---,0.00,VWS V13.01,2013-03-09 21:14:00,
2013-03-09 16:19:00,58.5,13.8,29.20,SE,135,2.7,4.0,17,0.00,,---,0.00,VWS V13.01,2013-03-09 21:19:00,
2013-03-09 16:24:00,57.9,13.4,29.20,SE,135,2.7,3.6,17,0.00,,---,0.00,VWS V13.01,2013-03-09 21:24:00,
2013-03-09 16:29:00,57.9,13.4,29.20,SE,135,0.0,3.6,17,0.00,,---,0.00,VWS V13.01,2013-03-09 21:29:00,
2013-03-09 16:34:00,58.1,13.5,29.20,SE,135,0.0,3.6,17,0.00,,---,0.00,VWS V13.01,2013-03-09 21:34:00,
2013-03-09 16:39:00,57.7,13.2,29.20,SE,135,0.0,3.6,17,0.00,,---,0.00,VWS V13.01,2013-03-09 21:39:00,
2013-03-09 16:44:00,56.3,12.1,29.20,SE,135,3.1,3.1,17,0.00,,---,0.00,VWS V13.01,2013-03-09 21:44:00,
2013-03-09 16:49:00,55.4,11.3,29.20,SE,135,2.7,3.6,17,0.00,,---,0.00,VWS V13.01,2013-03-09 21:49:00,
2013-03-09 16:54:00,55.2,12.5,29.20,SE,135,0.0,3.6,18,0.00,,---,0.00,VWS V13.01,2013-03-09 21:54:00,
2013-03-09 17:00:00,53.2,10.9,29.20,SE,135,0.0,3.6,18,0.00,,---,0.00,VWS V13.01,2013-03-09 22:00:00,
2013-03-09 17:05:00,51.3,10.4,29.20,SE,135,0.0,0.0,19,0.00,,---,0.00,VWS V13.01,2013-03-09 22:05:00,
2013-03-09 17:10:00,50.0,9.4,29.20,SE,135,0.0,0.0,19,0.00,,---,0.00,VWS V13.01,2013-03-09 22:10:00,
2013-03-09 17:15:00,49.1,8.6,29.20,SE,135,0.0,0.0,19,0.00,,---,0.00,VWS V13.01,2013-03-09 22:15:00,
2013-03-09 17:20:00,48.0,7.7,29.20,SE,135,0.0,0.0,19,0.00,,---,0.00,VWS V13.01,2013-03-09 22:20:00,
2013-03-09 17:25:00,47.5,7.3,29.17,SE,135,0.0,0.0,19,0.00,,---,0.00,VWS V13.01,2013-03-09 22:25:00,
2013-03-09 17:30:00,46.9,6.8,29.17,SE,135,0.0,0.0,19,0.00,,---,0.00,VWS V13.01,2013-03-09 22:30:00,
2013-03-09 17:35:00,46.6,6.5,29.17,SE,135,2.7,2.7,19,0.00,,---,0.00,VWS V13.01,2013-03-09 22:35:00,
2013-03-09 17:40:00,46.2,7.4,29.17,SE,135,2.7,2.7,20,0.00,,---,0.00,VWS V13.01,2013-03-09 22:40:00,
2013-03-09 17:45:00,46.4,6.4,29.17,SE,135,2.2,2.7,19,0.00,,---,0.00,VWS V13.01,2013-03-09 22:45:00,
2013-03-09 17:50:00,45.5,8.9,29.17,SE,135,2.7,2.7,22,0.00,,---,0.00,VWS V13.01,2013-03-09 22:50:00,
2013-03-09 17:55:00,44.8,8.3,29.17,SE,135,2.2,2.7,22,0.00,,---,0.00,VWS V13.01,2013-03-09 22:55:00,
2013-03-09 18:01:00,44.6,8.1,29.17,SE,135,2.2,2.7,22,0.00,,---,0.00,VWS V13.01,2013-03-09 23:01:00,
2013-03-09 18:06:00,44.2,8.8,29.20,SE,135,2.7,2.7,23,0.00,,---,0.00,VWS V13.01,2013-03-09 23:06:00,
2013-03-09 18:11:00,43.5,8.2,29.20,SE,135,2.2,2.7,23,0.00,,---,0.00,VWS V13.01,2013-03-09 23:11:00,
2013-03-09 18:16:00,43.5,8.2,29.20,SE,135,2.7,2.7,23,0.00,,---,0.00,VWS V13.01,2013-03-09 23:16:00,
2013-03-09 18:21:00,43.5,8.2,29.20,SE,135,2.2,2.7,23,0.00,,---,0.00,VWS V13.01,2013-03-09 23:21:00,
2013-03-09 18:26:00,42.8,9.4,29.20,SE,135,2.7,2.7,25,0.00,,---,0.00,VWS V13.01,2013-03-09 23:26:00,
2013-03-09 18:31:00,43.2,7.9,29.20,SE,135,2.7,3.1,23,0.00,,---,0.00,VWS V13.01,2013-03-09 23:31:00,
2013-03-09 18:36:00,42.6,10.1,29.17,SE,135,2.7,3.1,26,0.00,,---,0.00,VWS V13.01,2013-03-09 23:36:00,
2013-03-09 18:41:00,42.6,10.1,29.17,SE,135,2.2,3.1,26,0.00,,---,0.00,VWS V13.01,2013-03-09 23:41:00,
2013-03-09 18:46:00,42.3,9.8,29.17,SE,135,2.7,2.7,26,0.00,,---,0.00,VWS V13.01,2013-03-09 23:46:00,
2013-03-09 18:51:00,42.8,7.6,29.17,SE,135,2.7,3.1,23,0.00,,---,0.00,VWS V13.01,2013-03-09 23:51:00,
2013-03-09 18:56:00,42.4,10.0,29.20,SE,135,2.7,3.1,26,0.00,,---,0.00,VWS V13.01,2013-03-09 23:56:00,
2013-03-09 19:01:00,42.4,10.0,29.20,SE,135,2.7,3.1,26,0.00,,---,0.00,VWS V13.01,2013-03-10 00:01:00,
2013-03-09 19:07:00,42.4,10.0,29.20,SE,135,2.2,3.1,26,0.00,,---,0.00,VWS V13.01,2013-03-10 00:07:00,
2013-03-09 19:12:00,42.1,9.7,29.20,SE,135,0.0,3.1,26,0.00,,---,0.00,VWS V13.01,2013-03-10 00:12:00,
2013-03-09 19:17:00,42.4,7.3,29.20,SE,135,0.0,3.1,23,0.00,,---,0.00,VWS V13.01,2013-03-10 00:17:00,
2013-03-09 19:22:00,42.3,7.1,29.20,SE,135,0.0,3.1,23,0.00,,---,0.00,VWS V13.01,2013-03-10 00:22:00,
2013-03-09 19:27:00,42.3,9.8,29.17,SE,135,0.0,0.0,26,0.00,,---,0.00,VWS V13.01,2013-03-10 00:27:00,
2013-03-09 19:32:00,41.5,9.2,29.17,SE,135,0.0,0.0,26,0.00,,---,0.00,VWS V13.01,2013-03-10 00:32:00,
2013-03-09 19:37:00,41.7,9.4,29.20,SE,135,0.0,0.0,26,0.00,,---,0.00,VWS V13.01,2013-03-10 00:37:00,
2013-03-09 19:42:00,41.9,6.8,29.20,SE,135,0.0,0.0,23,0.00,,---,0.00,VWS V13.01,2013-03-10 00:42:00,
2013-03-09 19:47:00,41.7,6.7,29.20,SE,135,0.0,0.0,23,0.00,,---,0.00,VWS V13.01,2013-03-10 00:47:00,
2013-03-09 19:52:00,41.0,8.8,29.20,SE,135,0.0,0.0,26,0.00,,---,0.00,VWS V13.01,2013-03-10 00:52:00,
2013-03-09 19:57:00,41.4,6.4,29.20,SE,135,0.0,0.0,23,0.00,,---,0.00,VWS V13.01,2013-03-10 00:57:00,
2013-03-09 20:02:00,41.2,6.2,29.20,SE,135,0.0,0.0,23,0.00,,---,0.00,VWS V13.01,2013-03-10 01:02:00,
2013-03-09 20:07:00,40.8,5.9,29.20,SE,135,0.0,0.0,23,0.00,,---,0.00,VWS V13.01,2013-03-10 01:07:00,
2013-03-09 20:12:00,40.8,5.9,29.20,SE,135,0.0,0.0,23,0.00,,---,0.00,VWS V13.01,2013-03-10 01:12:00,
2013-03-09 20:18:00,40.6,5.8,29.20,SE,135,0.0,0.0,23,0.00,,---,0.00,VWS V13.01,2013-03-10 01:18:00,
2013-03-09 20:23:00,40.6,5.8,29.20,SE,135,0.0,0.0,23,0.00,,---,0.00,VWS V13.01,2013-03-10 01:23:00,
2013-03-09 20:28:00,40.6,5.8,29.20,SE,135,0.0,0.0,23,0.00,,---,0.00,VWS V13.01,2013-03-10 01:28:00,
2013-03-09 20:33:00,40.5,8.3,29.20,SE,135,0.0,0.0,26,0.00,,---,0.00,VWS V13.01,2013-03-10 01:33:00,
2013-03-09 20:38:00,40.5,8.3,29.20,SE,135,0.0,0.0,26,0.00,,---,0.00,VWS V13.01,2013-03-10 01:38:00,
2013-03-09 20:43:00,40.3,8.1,29.20,SE,135,0.0,0.0,26,0.00,,---,0.00,VWS V13.01,2013-03-10 01:43:00,
2013-03-09 20:48:00,40.1,8.0,29.20,SE,135,0.0,0.0,26,0.00,,---,0.00,VWS V13.01,2013-03-10 01:48:00,
2013-03-09 20:53:00,40.1,8.0,29.17,SE,135,0.0,0.0,26,0.00,,---,0.00,VWS V13.01,2013-03-10 01:53:00,
2013-03-09 20:58:00,39.9,5.1,29.17,SE,135,0.0,0.0,23,0.00,,---,0.00,VWS V13.01,2013-03-10 01:58:00,
2013-03-09 21:03:00,39.7,7.7,29.17,SE,135,0.0,0.0,26,0.00,,---,0.00,VWS V13.01,2013-03-10 02:03:00,
2013-03-09 21:08:00,39.9,5.1,29.17,SE,135,0.0,0.0,23,0.00,,---,0.00,VWS V13.01,2013-03-10 02:08:00,
2013-03-09 21:13:00,39.7,5.0,29.17,SE,135,0.0,0.0,23,0.00,,---,0.00,VWS V13.01,2013-03-10 02:13:00,
2013-03-09 21:19:00,39.9,5.1,29.17,SE,135,0.0,0.0,23,0.00,,---,0.00,VWS V13.01,2013-03-10 02:19:00,
2013-03-09 21:24:00,40.1,5.3,29.17,SE,135,0.0,0.0,23,0.00,,---,0.00,VWS V13.01,2013-03-10 02:24:00,
2013-03-09 21:29:00,39.7,5.0,29.17,SE,135,0.0,0.0,23,0.00,,---,0.00,VWS V13.01,2013-03-10 02:29:00,
2013-03-09 21:34:00,39.6,4.8,29.17,SE,135,0.0,0.0,23,0.00,,---,0.00,VWS V13.01,2013-03-10 02:34:00,
2013-03-09 21:40:00,39.6,4.8,29.20,SE,135,0.0,0.0,23,0.00,,---,0.00,VWS V13.01,2013-03-10 02:40:00,
2013-03-09 21:45:00,39.4,4.7,29.20,SE,135,0.0,0.0,23,0.00,,---,0.00,VWS V13.01,2013-03-10 02:45:00,
2013-03-09 21:50:00,39.2,4.5,29.20,SE,135,0.0,0.0,23,0.00,,---,0.00,VWS V13.01,2013-03-10 02:50:00,
2013-03-09 21:55:00,39.0,5.3,29.20,SE,135,0.0,0.0,24,0.00,,---,0.00,VWS V13.01,2013-03-10 02:55:00,
2013-03-09 22:00:00,38.8,5.2,29.20,SE,135,0.0,0.0,24,0.00,,---,0.00,VWS V13.01,2013-03-10 03:00:00,
2013-03-09 22:05:00,38.8,5.2,29.20,SE,135,0.0,0.0,24,0.00,,---,0.00,VWS V13.01,2013-03-10 03:05:00,
2013-03-09 22:10:00,38.5,4.8,29.20,SE,135,0.0,0.0,24,0.00,,---,0.00,VWS V13.01,2013-03-10 03:10:00,
2013-03-09 22:15:00,38.5,4.8,29.20,SE,135,0.0,0.0,24,0.00,,---,0.00,VWS V13.01,2013-03-10 03:15:00,
2013-03-09 22:20:00,37.9,8.5,29.20,SE,135,0.0,0.0,29,0.00,,---,0.00,VWS V13.01,2013-03-10 03:20:00,
2013-03-09 22:26:00,37.6,8.2,29.20,SE,135,0.0,0.0,29,0.00,,---,0.00,VWS V13.01,2013-03-10 03:26:00,
2013-03-09 22:31:00,37.6,8.2,29.20,SE,135,0.0,0.0,29,0.00,,---,0.00,VWS V13.01,2013-03-10 03:31:00,
2013-03-09 22:36:00,37.4,8.1,29.20,SE,135,0.0,0.0,29,0.00,,---,0.00,VWS V13.01,2013-03-10 03:36:00,
2013-03-09 22:41:00,37.4,5.7,29.20,SE,135,0.0,0.0,26,0.00,,---,0.00,VWS V13.01,2013-03-10 03:41:00,
2013-03-09 22:46:00,37.4,5.7,29.20,SE,135,0.0,0.0,26,0.00,,---,0.00,VWS V13.01,2013-03-10 03:46:00,
2013-03-09 22:51:00,37.6,5.8,29.20,SE,135,0.0,0.0,26,0.00,,---,0.00,VWS V13.01,2013-03-10 03:51:00,
2013-03-09 22:56:00,37.4,5.7,29.20,SE,135,0.0,0.0,26,0.00,,---,0.00,VWS V13.01,2013-03-10 03:56:00,
2013-03-09 23:01:00,36.9,3.5,29.20,SE,135,0.0,0.0,24,0.00,,---,0.00,VWS V13.01,2013-03-10 04:01:00,
2013-03-09 23:06:00,36.9,3.5,29.17,SE,135,0.0,0.0,24,0.00,,---,0.00,VWS V13.01,2013-03-10 04:06:00,
2013-03-09 23:11:00,36.3,7.1,29.17,SE,135,0.0,0.0,29,0.00,,---,0.00,VWS V13.01,2013-03-10 04:11:00,
2013-03-09 23:16:00,36.0,5.2,29.17,SE,135,0.0,0.0,27,0.00,,---,0.00,VWS V13.01,2013-03-10 04:16:00,
2013-03-09 23:21:00,36.0,7.6,29.17,SE,135,0.0,0.0,30,0.00,,---,0.00,VWS V13.01,2013-03-10 04:21:00,
2013-03-09 23:27:00,35.8,7.4,29.17,SE,135,0.0,0.0,30,0.00,,---,0.00,VWS V13.01,2013-03-10 04:27:00,
2013-03-09 23:32:00,36.0,2.7,29.17,SE,135,0.0,0.0,24,0.00,,---,0.00,VWS V13.01,2013-03-10 04:32:00,
2013-03-09 23:37:00,36.0,2.7,29.17,SE,135,0.0,0.0,24,0.00,,---,0.00,VWS V13.01,2013-03-10 04:37:00,
2013-03-09 23:42:00,35.8,2.5,29.17,SE,135,0.0,0.0,24,0.00,,---,0.00,VWS V13.01,2013-03-10 04:42:00,
2013-03-09 23:47:00,35.8,2.5,29.17,SE,135,0.0,0.0,24,0.00,,---,0.00,VWS V13.01,2013-03-10 04:47:00,
2013-03-09 23:52:00,35.1,2.8,29.17,SE,135,0.0,0.0,25,0.00,,---,0.00,VWS V13.01,2013-03-10 04:52:00,
2013-03-09 23:57:00,35.1,2.8,29.17,SE,135,0.0,0.0,25,0.00,,---,0.00,VWS V13.01,2013-03-10 04:57:00,